This is the latest recevied weather packets stored in our database for station/object KH6DH-13. If no packets are shown the sender has not sent any weather packets the latest 10 day(s).
| Time | Temp. | Humidity | Pressure | Rain* | Wind** | Luminosity | Snow |
|---|---|---|---|---|---|---|---|
| 1777924008 | 25.56° C | - | - | 0 mm | 1.34 m/s, 155° | - | - |
| 1777923407 | 25.56° C | - | - | 0 mm | 2.24 m/s, 70° | - | - |
| 1777922806 | 25° C | - | - | 0 mm | 0.89 m/s, 187° | - | - |
| 1777922205 | 25.56° C | - | - | 0 mm | 1.34 m/s, 11° | - | - |
| 1777921604 | 25° C | - | - | 0 mm | 2.68 m/s, 103° | - | - |
| 1777921003 | 25° C | - | - | 0 mm | 2.68 m/s, 49° | - | - |
| 1777920402 | 25° C | - | - | 0 mm | 1.34 m/s, 125° | - | - |
| 1777919801 | 24.44° C | - | - | 0 mm | 1.79 m/s, 46° | - | - |
| 1777919200 | 24.44° C | - | - | 0 mm | 1.79 m/s, 48° | - | - |
| 1777918597 | 23.89° C | - | - | 0 mm | 3.13 m/s, 122° | - | - |
| 1777917996 | 23.89° C | - | - | 0 mm | 1.34 m/s, 25° | - | - |
| 1777917395 | 23.89° C | - | - | 0 mm | 0.45 m/s, 65° | - | - |
| 1777916794 | 23.33° C | - | - | 0 mm | 2.68 m/s, 68° | - | - |
| 1777916193 | 23.33° C | - | - | 0 mm | 1.34 m/s, 69° | - | - |
| 1777915592 | 22.78° C | - | - | 0 mm | 1.79 m/s, 39° | - | - |
| 1777914991 | 22.78° C | - | - | 0 mm | 1.79 m/s, 56° | - | - |
| 1777914390 | 22.22° C | - | - | 0 mm | 1.79 m/s, 63° | - | - |
| 1777913789 | 22.78° C | - | - | 0 mm | 0.45 m/s, 37° | - | - |
| 1777913188 | 22.78° C | - | - | 0 mm | 0.89 m/s, 48° | - | - |
| 1777912587 | 22.22° C | - | - | 0 mm | 0.89 m/s, 20° | - | - |
| 1777911986 | 22.22° C | - | - | 0 mm | 0.45 m/s, 259° | - | - |
| 1777911385 | 22.22° C | - | - | 0 mm | 1.79 m/s, 21° | - | - |
| 1777910784 | 22.22° C | - | - | 0 mm | 0.45 m/s, 319° | - | - |
| 1777910183 | 22.22° C | - | - | 0 mm | 0 m/s | - | - |
| 1777909582 | 22.22° C | - | - | 0 mm | 1.34 m/s, 96° | - | - |
* Rain latest hour (hover to see other rain measurements)
** Current wind speed in m/s (hover to see current wind gust speed)